Hors Challenge

Le Trail Des Trappistes - Chimay - Bourlers (21.00 km)

dimanche 08 septembre 2019

Vous pouvez trouver Le classement original sur : https://my2.raceresult.com
 
LE TRAIL DES TRAPPISTES - CHIMAY - BOURLERS
DISTANCE : 21.00 km
dimanche 08 septembre 2019
 
Place dos NOM Catégorie Pl/cat temps temps/km Vitesse
01:00:00              
1 31 SVEN MAES SH 1 1:22:09 03:55 15.34
2 269 GAUTHIER MIME SH 2 1:25:10 04:03 14.79
3 44 CYRIL JAUQUET SH 3 1:27:06 04:09 14.47
4 516 PIETER ROGGE SH 4 1:29:13 04:15 14.12
5 59 NILS IWENS SH 5 1:29:17 04:15 14.11
6 2077 JÉRÉMY GANDOUIN V1 1 1:31:29 04:21 13.77
7 361 WARD VAN ASSCHE SH 6 1:34:37 04:30 13.32
8 3977 LUDOVIC NORDIEN SH 7 1:35:51 04:34 13.15
9 2040 BENJAMIN HANOTIEAU SH 8 1:36:53 04:37 13.01
10 184 GERT GIELEN V1 2 1:37:25 04:38 12.93
11 497 GIOVANNI BULTYNCK V1 3 1:37:35 04:39 12.91
12 277 MICHAËL MAES SH 9 1:37:50 04:40 12.88
13 475 PIETER NEIRYNCK V1 4 1:38:05 04:40 12.85
14 481 DAVY SPIESSENS V1 5 1:38:46 04:42 12.76
15 103 JONATHAN HOSTYN SH 10 1:38:57 04:43 12.73
16 418 TOM CORMAN V1 6 1:40:25 04:47 12.55
17 283 ANDRIES FLUIT SH 11 1:40:44 04:48 12.51
18 472 STEVE ARICKX V2 1 1:42:25 04:53 12.30
19 2057 ELIE RICHARD SH 12 1:43:37 04:56 12.16
20 245 STEFAN ZWARTJES V1 7 1:44:16 04:58 12.08
21 400 STIJN CREMERS SH 13 1:44:49 04:59 12.02
22 2086 JEAN BAPTISTE CANIAUX SH 14 1:44:51 05:00 12.02
23 212 WARD JANSSENS SH 15 1:45:56 05:03 11.89
24 132 HENK VAN ACKER V2 2 1:45:58 05:03 11.89
25 237 JAN VAN OYEN V2 3 1:46:00 05:03 11.89
26 553 BERTRAND DEPASSE V1 8 1:46:01 05:03 11.88
27 533 AUDREY CATHELAIN SD 1 1:46:06 05:03 11.88
28 504 CORENTIN MARECO SH 16 1:46:07 05:03 11.87
29 2064 NICK HOFFSTEDDE SH 17 1:47:27 05:07 11.73
30 495 JULIEN BUHOT SH 18 1:47:46 05:08 11.69
31 2042 LAURIANE LEGRAND SD 2 1:47:55 05:08 11.68
32 387 JUAN DIEGO ARIAS SH 19 1:49:16 05:12 11.53
33 514 YANNICK JOUCK SH 20 1:49:18 05:12 11.53
34 2013 LORE VAN ASSCHE SD 3 1:49:19 05:12 11.53
35 274 BRUNO FALISE V1 9 1:49:28 05:13 11.51
36 271 PATRICK VANDERGHEYNST V2 4 1:49:28 05:13 11.51
37 3976 DIMITRI DEGEYTER SH 21 1:49:56 05:14 11.46
38 168 DIEGO VAN DALEN SH 22 1:50:30 05:16 11.40
39 487 ROMAIN LIENART SH 23 1:50:38 05:16 11.39
40 374 MARC KOBS V3 1 1:50:45 05:16 11.38
41 214 AXEL DELIERE SH 24 1:50:59 05:17 11.35
42 232 EDOUARD DESMARETS SH 25 1:51:03 05:17 11.35
43 528 THOMAS LEYSEN SH 26 1:51:04 05:17 11.34
44 489 QUENTIN PIROT SH 27 1:51:13 05:18 11.33
45 169 WOUT LOOS SH 28 1:51:31 05:19 11.30
46 2026 ANAIS VALSESIA SD 4 1:52:10 05:20 11.23
47 87 MAARTEN VAN DER EIJK SH 29 1:53:17 05:24 11.12
48 205 MAÏTÉ VANHEE JF 1 1:53:27 05:24 11.11
49 3982 AICHA MATHEU SD 5 1:53:34 05:24 11.09
50 443 HILDE DE PAEPE A1 1 1:53:53 05:25 11.06
51 405 DENNIS WAUTHIJ SH 30 1:54:30 05:27 11.00
52 202 SIMON BOONE SH 31 1:54:40 05:28 10.99
53 3975 SÉBASTIEN NINITE V1 10 1:54:41 05:28 10.99
54 2066 JEAN-FRANÇOIS MAHY V1 11 1:54:54 05:28 10.97
55 201 EGON GUSSÉ SH 32 1:55:26 05:30 10.92
56 539 FLORENCE DUJARDIN SD 6 1:55:51 05:31 10.88
57 149 SYLVAIN HOUDELETTE V1 12 1:56:03 05:32 10.86
58 246 THIERRY ZUIJDWIJK V1 13 1:56:05 05:32 10.85
59 462 PIETER SUY V1 14 1:56:10 05:32 10.85
60 2006 JEROME DUJEUX SH 33 1:56:35 05:33 10.81
61 56 LAURENCE DELSART A1 2 1:56:39 05:33 10.80
62 57 CHRISTIAN SOBECKI V3 2 1:56:41 05:33 10.80
63 58 ELS WILLEMEN SD 7 1:57:00 05:34 10.77
64 284 TIM VERHEYDEN V1 15 1:57:13 05:35 10.75
65 476 ARNAUD ADAM V1 16 1:57:15 05:35 10.75
66 2087 SAMUEL ADAM V1 17 1:57:20 05:35 10.74
67 2089 KATRIEN PINTELON A1 3 1:57:33 05:36 10.72
68 517 BRECHT STOEFS SH 34 1:57:33 05:36 10.72
69 147 RAFAEL MACHADO SH 35 1:58:37 05:39 10.62
70 451 MARTIN KÖNIG SH 36 1:58:53 05:40 10.60
71 432 ROBBIE VANHESTE SH 37 1:58:57 05:40 10.59
72 353 JOHANNES WEYTJENS SH 38 1:59:24 05:41 10.55
73 267 CHRISTOPHE DE FAYS SH 39 2:00:10 05:43 10.49
74 505 FILIP SIMONS V1 18 2:01:01 05:46 10.41
75 270 NICOLAS CONIL SH 40 2:01:25 05:47 10.38
76 527 JEAN-FRANÇOIS ANDRÉ V1 19 2:01:25 05:47 10.38
77 377 LAURENT THUILLIER V1 20 2:01:27 05:47 10.37
78 3981 JORIS VINCK SH 41 2:02:31 05:50 10.28
79 450 JAN CORLUY SH 42 2:02:42 05:51 10.27
80 543 TONY JANSEN V1 21 2:02:47 05:51 10.26
81 2008 STEVEN VAN GEEL SH 43 2:02:47 05:51 10.26
82 465 MARION FETET SD 8 2:03:06 05:52 10.24
83 223 BART DEFLOOR SH 44 2:03:12 05:52 10.23
84 428 RIK VAN MAANEN SH 45 2:03:13 05:52 10.23
85 218 STÉPHANE ANDRÉ V1 22 2:03:22 05:52 10.21
86 332 BERT BALLET V1 23 2:03:46 05:54 10.18
87 333 STIJN MEUWIS V1 24 2:04:27 05:56 10.12
88 196 THOMAS LEROY SH 46 2:04:52 05:57 10.09
89 256 ANNELIES VANDEWALLE SD 9 2:04:57 05:57 10.08
90 547 HEIDI NOËT A1 4 2:05:07 05:57 10.07
91 92 FRÉDÉRIC VOLLÉ SH 47 2:05:08 05:58 10.07
92 99 THOMAS CROQUEVIELLE SH 48 2:05:08 05:58 10.07
93 93 REMI CHEDEVILLE SH 49 2:05:08 05:58 10.07
94 94 BARTHELEMY MICHALAK SH 50 2:05:08 05:58 10.07
95 2005 ELS VAN DE WEGHE A1 5 2:05:12 05:58 10.06
96 181 SÉBASTIEN MABILLE V1 25 2:06:23 06:01 9.97
97 71 MIKE VAN ECK V1 26 2:06:39 06:02 9.95
98 386 KIM VERMEIR A1 6 2:06:43 06:02 9.94
99 326 JULIEN JEUNIAUX SH 51 2:06:45 06:02 9.94
100 521 WERNER REINARTZ V1 27 2:06:49 06:02 9.94
101 536 TOM MENTENS SH 52 2:07:00 06:03 9.92
102 340 KATHLEEN LOOBUYCK A1 7 2:07:05 06:03 9.91
103 469 GUY VELDEMAN V1 28 2:07:11 06:03 9.91
104 518 FRÉDÉRIC LAMORT V1 29 2:07:34 06:04 9.88
105 388 EKATERINA KAZAKOVA SD 10 2:07:35 06:05 9.88
106 344 ERICO FERNANDES SH 53 2:07:41 06:05 9.87
107 324 GEERT JACOBS V1 30 2:07:51 06:05 9.86
108 266 YANN JACQUET V1 31 2:07:53 06:05 9.85
109 3978 BJÖRN ASSELBERGHS SH 54 2:07:56 06:06 9.85
110 230 WOUT GOEMINNE SH 55 2:07:57 06:06 9.85
111 3979 JURGEN VERSCHUEREN V1 32 2:07:58 06:06 9.85
112 90 ANDY MOLHOEK V1 33 2:08:06 06:06 9.84
113 142 AGRIPPINE DUMORTIER SD 11 2:09:05 06:09 9.76
114 402 PHILIPPE CHERUBIN V1 34 2:09:20 06:10 9.74
115 447 SÉBASTIEN POGODA V1 35 2:09:21 06:10 9.74
116 512 CHARLOTTE LANGER SD 12 2:09:42 06:11 9.71
117 2059 MIEKE VANDE WALLE A1 8 2:09:53 06:11 9.70
118 113 ELS VAN ROSSEM A1 9 2:09:53 06:11 9.70
119 542 BEATRICE DEGELAN A1 10 2:09:59 06:11 9.69
120 28 TOMMY VALCKX V1 36 2:10:00 06:11 9.69
121 25 JOOST POOT V1 37 2:10:00 06:11 9.69
122 66 BAS VALCKX V1 38 2:10:00 06:11 9.69
123 2047 KLARA DE WIT SD 13 2:10:11 06:12 9.68
124 163 ELLEN VAN DE WOESTIJNE A1 11 2:10:28 06:13 9.66
125 272 LEYLA MAGOMEDOVA SD 14 2:10:42 06:13 9.64
126 493 NICOLAS SZCZOTKOWSKI SH 56 2:10:54 06:14 9.63
127 538 ESMERALDA SIMON A1 12 2:12:09 06:18 9.53
128 355 BASTIEN CHANOINE SH 57 2:12:23 06:18 9.52
129 285 MICHAEL GOOSSENS SH 58 2:12:28 06:18 9.51
130 167 SIEGRID VAN BEVER A1 13 2:12:38 06:19 9.50
131 529 JULIE LAMBRECHT SD 15 2:12:41 06:19 9.50
132 102 PIERRE ANDRE V1 39 2:13:30 06:21 9.44
133 81 MARIE-GABRIELLE THOLL A1 14 2:13:46 06:22 9.42
134 508 SANDRA KELLER A1 15 2:14:12 06:23 9.39
135 289 IGOR MISHCHENKO V1 40 2:14:24 06:24 9.38
136 290 ZHANNA ANTONENKO A1 16 2:14:24 06:24 9.38
137 73 SABINE LEYS A2 1 2:14:42 06:25 9.35
138 67 BJORN DE BETUE V1 41 2:14:55 06:25 9.34
139 137 STAN UIJTDEHAAG V1 42 2:15:42 06:28 9.29
140 255 PATRICK VERMEERSCH V2 5 2:16:20 06:30 9.24
141 249 AURELIEN MAURIAUCOURT SH 59 2:16:37 06:30 9.22
142 172 SHAJU HENDRIKX V1 43 2:16:37 06:30 9.22
143 250 REMY DELCROIX SH 60 2:16:38 06:30 9.22
144 407 LUDOVIC MASSENOT SH 61 2:16:42 06:31 9.22
145 139 SARAH LEUVEN A1 17 2:17:02 06:32 9.19
146 61 KRIS COENEN SH 62 2:17:02 06:32 9.19
147 525 GUILLAUME TRIFIN SH 63 2:18:03 06:34 9.13
148 2052 RÉGIS MANGEOL SH 64 2:18:37 06:36 9.09
149 535 BARBARA DELCHAMBRE A1 18 2:19:01 06:37 9.06
150 550 HERVÉ JOUART V2 6 2:19:18 06:38 9.05
151 549 FLORENT MALET V1 44 2:19:18 06:38 9.05
152 206 CAROLINE HOSTYN A1 19 2:19:22 06:38 9.04
153 4 INNE XHONNEUX SD 16 2:19:30 06:39 9.03
154 20 DENISE VOGEL SD 17 2:19:32 06:39 9.03
155 548 SANDRINE SMEULDERS SD 18 2:20:15 06:41 8.98
156 313 EVELINE COMINOTTO SD 19 2:20:39 06:42 8.96
157 148 EVELIEN BERKMANS SD 20 2:23:09 06:49 8.80
158 166 NICOLAS MEULYSER SH 65 2:23:19 06:49 8.79
159 268 LUDO QUETS SH 66 2:23:24 06:50 8.79
160 173 YVES GOSSUIN V1 45 2:23:25 06:50 8.79
161 146 TU TRAN VAN V1 46 2:23:25 06:50 8.79
162 174 MAÏTÉ MARTIN A1 20 2:23:26 06:50 8.78
163 2017 ANTOINE AMELOT SH 67 2:24:26 06:53 8.72
164 208 KAROLIEN HAELEWYCK A1 21 2:24:48 06:54 8.70
165 286 BERT MORIS SH 68 02:24:59 06:54 8.69
166 171 FABIENNE SEILLIER SD 21 02:25:37 06:56 8.65
167 391 MATTHEW ZADOW V1 47 02:25:38 06:56 8.65
168 474 KIANA MANDEVILLE A1 22 02:25:38 06:56 8.65
169 210 CHRISTIAN VANHOOF V2 7 02:25:44 06:56 8.65
170 143 HEIDI ROUFFAER A1 23 02:26:16 06:58 8.61
171 238 BART PLAETE SH 69 02:26:53 07:00 8.58
172 398 HUGUES PEZERIL V1 48 02:27:00 07:00 8.57
173 192 XAVIER PEYRASSOL SH 70 02:27:24 07:01 8.55
174 375 SANDY SYSMANS SD 22 02:27:45 07:02 8.53
175 376 RONNY VAN LOMMEL V1 49 02:27:46 07:02 8.53
176 2051 BRAHIM IBOUDGHACEN SH 71 02:27:49 07:02 8.52
177 191 ADELINE GAZAN SD 23 02:27:49 07:02 8.52
178 488 LAURENT ESCOYEZ SH 72 02:28:09 07:03 8.50
179 179 AURELIE BAUDESSON SD 24 02:29:09 07:06 8.45
180 77 HÉLÈNE VANDEPUTTE A1 24 02:29:13 07:06 8.44
181 492 LOTTE LIEVENS A1 25 02:29:19 07:07 8.44
182 491 VEERLE PEETERS A1 26 02:29:19 07:07 8.44
183 43 NELLY LORTHE SD 25 02:31:46 07:14 8.30
184 85 CLEMENT DAVID SH 73 02:32:18 07:15 8.27
185 86 APOLLINE DA CUNHA SD 26 02:32:18 07:15 8.27
186 506 DOMINIQUE JACQUEMIN A1 27 02:33:27 07:18 8.21
187 2056 EMILIE MANIL SD 27 02:34:09 07:20 8.17
188 2055 MÉLANIE MANIL SD 28 02:34:09 07:20 8.17
189 502 CHRISTIAN LAMARQUE V4 1 02:35:18 07:24 8.11
190 496 AGNES DURIEUX V2 8 02:35:19 07:24 8.11
191 2053 LUDOVIC MONTAGNE V1 50 02:35:26 07:24 8.11
192 248 MELANIE CLOET SD 29 02:35:44 07:25 8.09
193 138 SOEKIE VAN ZUNDERT A1 28 02:35:52 07:25 8.08
194 161 VERONIQUE DELBAUVE A2 2 02:36:32 07:27 8.05
195 165 CÉLINE DECLERCQ SD 30 02:36:41 07:28 8.04
196 470 LUDIVINE BROCCA SD 31 02:42:44 07:45 7.74
197 380 SOPHIE HUMBLET A1 29 02:42:45 07:45 7.74
198 151 TERRY BOL A1 30 02:43:12 07:46 7.72
199 442 BOB KREDER SH 74 02:44:10 07:49 7.68
200 382 BAPTISTE HANSSENS SH 75 02:44:50 07:51 7.64
201 262 JOELLE LECROART A2 3 02:54:18 08:18 7.23
202 263 PATRICIA JARY A2 4 02:54:19 08:18 7.23
203 2070 FRANCOIS LYDIE A1 31 02:56:48 08:25 7.13
204 2071 ALAIN STERNADEL V2 9 02:56:48 08:25 7.13
205 17 JÜRGEN MOERBEEK V1 51 03:10:09 09:03 6.63
206 406 LAETITIA TJONCKE SD 32 03:10:40 09:05 6.61
207 88 AN HERMANS SD 33 03:16:38 09:22 6.41
208 110 TINNE GOETSCHALCKX SD 34 03:16:38 09:22 6.41
209 24 SÉBASTIEN CAULIER V1 52 03:20:15 09:32 6.29
210 23 MAGALI VANHOUTTE SD 35 03:20:15 09:32 6.29